owner,sensor,date,latitude,longitude,vertical_datum,mass_concentration_of_oxygen_in_sea_water,qcFlag 
SCCF RECON,ioos:station:SCCF:11:1,2012-05-01T00:00:00Z,26.4679,-82.0631,1.937,6.75,1111122 
SCCF RECON,ioos:station:SCCF:11:1,2012-05-01T01:00:00Z,26.4679,-82.0631,1.93,6.6,1111122 
SCCF RECON,ioos:station:SCCF:11:1,2012-05-01T02:00:00Z,26.4679,-82.0631,1.934,6.38,1111122 
SCCF RECON,ioos:station:SCCF:11:1,2012-05-01T03:00:00Z,26.4679,-82.0631,1.89,6.59,1111122 
SCCF RECON,ioos:station:SCCF:11:1,2012-05-01T04:00:00Z,26.4679,-82.0631,1.8,6.63,1111122 
SCCF RECON,ioos:station:SCCF:11:1,2012-05-01T05:00:00Z,26.4679,-82.0631,1.72,6.55,1111122 
SCCF RECON,ioos:station:SCCF:11:1,2012-05-01T06:00:00Z,26.4679,-82.0631,1.662,6.3,1111122 
SCCF RECON,ioos:station:SCCF:11:1,2012-05-01T07:00:00Z,26.4679,-82.0631,1.607,6.28,1111122 
SCCF RECON,ioos:station:SCCF:11:1,2012-05-01T08:00:00Z,26.4679,-82.0631,1.611,5.68,1111122 
SCCF RECON,ioos:station:SCCF:11:1,2012-05-01T09:00:00Z,26.4679,-82.0631,1.722,6.07,1111122 
SCCF RECON,ioos:station:SCCF:11:1,2012-05-01T10:00:00Z,26.4679,-82.0631,1.853,5.93,1111122 
SCCF RECON,ioos:station:SCCF:11:1,2012-05-01T11:00:00Z,26.4679,-82.0631,1.96,6.16,1111122 
SCCF RECON,ioos:station:SCCF:11:1,2012-05-01T12:00:00Z,26.4679,-82.0631,2.06,6.27,1111122 
SCCF RECON,ioos:station:SCCF:11:1,2012-05-01T13:00:00Z,26.4679,-82.0631,2.13,6.34,1111122 
SCCF RECON,ioos:station:SCCF:11:1,2012-05-01T14:00:00Z,26.4679,-82.0631,2.164,6.31,1111122 
SCCF RECON,ioos:station:SCCF:11:1,2012-05-01T15:00:00Z,26.4679,-82.0631,2.19,6.52,1111122 
SCCF RECON,ioos:station:SCCF:11:1,2012-05-01T16:00:00Z,26.4679,-82.0631,2.154,6.61,1111122 
SCCF RECON,ioos:station:SCCF:11:1,2012-05-01T17:00:00Z,26.4679,-82.0631,2.046,6.83,1111122 
SCCF RECON,ioos:station:SCCF:11:1,2012-05-01T18:00:00Z,26.4679,-82.0631,1.94,7.25,1111122 
SCCF RECON,ioos:station:SCCF:11:1,2012-05-01T19:00:00Z,26.4679,-82.0631,1.823,7.55,1111122 
SCCF RECON,ioos:station:SCCF:11:1,2012-05-01T20:00:00Z,26.4679,-82.0631,1.782,8.15,1111122 
SCCF RECON,ioos:station:SCCF:11:1,2012-05-01T21:00:00Z,26.4679,-82.0631,1.81,7.65,1111122 
SCCF RECON,ioos:station:SCCF:11:1,2012-05-01T22:00:00Z,26.4679,-82.0631,1.878,7.79,1111122 
SCCF RECON,ioos:station:SCCF:11:1,2012-05-01T23:00:00Z,26.4679,-82.0631,1.99,7.51,1111122 
SCCF RECON,ioos:station:SCCF:11:1,2012-05-02T00:00:00Z,26.4679,-82.0631,2.07,7.17,1111122 
SCCF RECON,ioos:station:SCCF:11:1,2012-05-02T01:00:00Z,26.4679,-82.0631,2.12,6.84,1111122 
SCCF RECON,ioos:station:SCCF:11:1,2012-05-02T02:00:00Z,26.4679,-82.0631,2.14,6.63,1111122 
SCCF RECON,ioos:station:SCCF:11:1,2012-05-02T03:00:00Z,26.4679,-82.0631,2.16,6.66,1111122 
SCCF RECON,ioos:station:SCCF:11:1,2012-05-02T04:00:00Z,26.4679,-82.0631,2.13,6.5,1111122 
SCCF RECON,ioos:station:SCCF:11:1,2012-05-02T05:00:00Z,26.4679,-82.0631,2.007,6.84,1111122 
SCCF RECON,ioos:station:SCCF:11:1,2012-05-02T06:00:00Z,26.4679,-82.0631,1.879,6.6,1111122 
SCCF RECON,ioos:station:SCCF:11:1,2012-05-02T07:00:00Z,26.4679,-82.0631,1.784,6.56,1111122 
SCCF RECON,ioos:station:SCCF:11:1,2012-05-02T08:00:00Z,26.4679,-82.0631,1.7,6.38,1111122 
SCCF RECON,ioos:station:SCCF:11:1,2012-05-02T09:00:00Z,26.4679,-82.0631,1.68,6.09,1111122 
SCCF RECON,ioos:station:SCCF:11:1,2012-05-02T10:00:00Z,26.4679,-82.0631,1.769,5.97,1111122 
SCCF RECON,ioos:station:SCCF:11:1,2012-05-02T11:00:00Z,26.4679,-82.0631,1.954,5.97,1111122 
SCCF RECON,ioos:station:SCCF:11:1,2012-05-02T12:00:00Z,26.4679,-82.0631,2.107,6.1,1111122 
SCCF RECON,ioos:station:SCCF:11:1,2012-05-02T13:00:00Z,26.4679,-82.0631,2.18,6.33,1111122 
SCCF RECON,ioos:station:SCCF:11:1,2012-05-02T14:00:00Z,26.4679,-82.0631,2.263,6.49,1111122 
SCCF RECON,ioos:station:SCCF:11:1,2012-05-02T15:00:00Z,26.4679,-82.0631,2.306,6.75,1111122 
SCCF RECON,ioos:station:SCCF:11:1,2012-05-02T16:00:00Z,26.4679,-82.0631,2.268,6.66,1111122 
SCCF RECON,ioos:station:SCCF:11:1,2012-05-02T17:00:00Z,26.4679,-82.0631,2.16,7.08,1111122 
SCCF RECON,ioos:station:SCCF:11:1,2012-05-02T18:00:00Z,26.4679,-82.0631,2.034,7.27,1111122 
SCCF RECON,ioos:station:SCCF:11:1,2012-05-02T19:00:00Z,26.4679,-82.0631,1.98,7.5,1111122 
SCCF RECON,ioos:station:SCCF:11:1,2012-05-02T20:00:00Z,26.4679,-82.0631,1.828,7.6,1111122 
SCCF RECON,ioos:station:SCCF:11:1,2012-05-02T21:00:00Z,26.4679,-82.0631,1.744,7.87,1111122 
SCCF RECON,ioos:station:SCCF:11:1,2012-05-02T22:00:00Z,26.4679,-82.0631,1.761,7.78,1111122 
SCCF RECON,ioos:station:SCCF:11:1,2012-05-02T23:00:00Z,26.4679,-82.0631,1.843,7.85,1111122 
SCCF RECON,ioos:station:SCCF:11:1,2012-05-03T00:00:00Z,26.4679,-82.0631,1.97,7.02,1111122 
SCCF RECON,ioos:station:SCCF:11:1,2012-05-03T01:00:00Z,26.4679,-82.0631,2.11,6.88,1111122 
SCCF RECON,ioos:station:SCCF:11:1,2012-05-03T02:00:00Z,26.4679,-82.0631,2.212,6.83,1111122 
SCCF RECON,ioos:station:SCCF:11:1,2012-05-03T03:00:00Z,26.4679,-82.0631,2.27,6.63,1111122 
SCCF RECON,ioos:station:SCCF:11:1,2012-05-03T04:00:00Z,26.4679,-82.0631,2.28,6.34,1111122 
SCCF RECON,ioos:station:SCCF:11:1,2012-05-03T05:00:00Z,26.4679,-82.0631,2.22,6.49,1111122 
SCCF RECON,ioos:station:SCCF:11:1,2012-05-03T06:00:00Z,26.4679,-82.0631,2.079,6.52,1111122 
SCCF RECON,ioos:station:SCCF:11:1,2012-05-03T07:00:00Z,26.4679,-82.0631,1.935,6.19,1111122 
SCCF RECON,ioos:station:SCCF:11:1,2012-05-03T08:00:00Z,26.4679,-82.0631,1.84,6.1,1111122 
SCCF RECON,ioos:station:SCCF:11:1,2012-05-03T09:00:00Z,26.4679,-82.0631,1.769,5.95,1111122 
SCCF RECON,ioos:station:SCCF:11:1,2012-05-03T10:00:00Z,26.4679,-82.0631,1.77,6.12,1111122 
SCCF RECON,ioos:station:SCCF:11:1,2012-05-03T11:00:00Z,26.4679,-82.0631,1.88,5.75,1111122 
SCCF RECON,ioos:station:SCCF:11:1,2012-05-03T12:00:00Z,26.4679,-82.0631,2.09,5.97,1111122 
SCCF RECON,ioos:station:SCCF:11:1,2012-05-03T13:00:00Z,26.4679,-82.0631,2.226,6.26,1111122 
SCCF RECON,ioos:station:SCCF:11:1,2012-05-03T14:00:00Z,26.4679,-82.0631,2.319,6.36,1111122 
SCCF RECON,ioos:station:SCCF:11:1,2012-05-03T16:00:00Z,26.4679,-82.0631,2.378,6.42,1111122 
SCCF RECON,ioos:station:SCCF:11:1,2012-05-03T17:00:00Z,26.4679,-82.0631,2.25,6.6,1111122 
SCCF RECON,ioos:station:SCCF:11:1,2012-05-03T18:00:00Z,26.4679,-82.0631,2.083,6.91,1111122 
SCCF RECON,ioos:station:SCCF:11:1,2012-05-03T19:00:00Z,26.4679,-82.0631,1.947,7.15,1111122 
SCCF RECON,ioos:station:SCCF:11:1,2012-05-03T20:00:00Z,26.4679,-82.0631,1.821,7.4,1111122 
SCCF RECON,ioos:station:SCCF:11:1,2012-05-03T21:00:00Z,26.4679,-82.0631,1.709,7.52,1111122 
SCCF RECON,ioos:station:SCCF:11:1,2012-05-03T22:00:00Z,26.4679,-82.0631,1.61,7.56,1111122 
SCCF RECON,ioos:station:SCCF:11:1,2012-05-03T23:00:00Z,26.4679,-82.0631,1.614,7.43,1111122 
SCCF RECON,ioos:station:SCCF:11:1,2012-05-04T00:00:00Z,26.4679,-82.0631,1.75,7.88,1111122 
SCCF RECON,ioos:station:SCCF:11:1,2012-05-04T01:00:00Z,26.4679,-82.0631,1.91,7.42,1111122 
SCCF RECON,ioos:station:SCCF:11:1,2012-05-04T02:00:00Z,26.4679,-82.0631,2.052,7.18,1111122 
SCCF RECON,ioos:station:SCCF:11:1,2012-05-04T03:00:00Z,26.4679,-82.0631,2.19,6.92,1111122 
SCCF RECON,ioos:station:SCCF:11:1,2012-05-04T04:00:00Z,26.4679,-82.0631,2.28,6.65,1111122 
SCCF RECON,ioos:station:SCCF:11:1,2012-05-04T05:00:00Z,26.4679,-82.0631,2.25,6.67,1111122 
SCCF RECON,ioos:station:SCCF:11:1,2012-05-04T06:00:00Z,26.4679,-82.0631,2.15,6.71,1111122 
SCCF RECON,ioos:station:SCCF:11:1,2012-05-04T07:00:00Z,26.4679,-82.0631,2.02,6.42,1111122 
SCCF RECON,ioos:station:SCCF:11:1,2012-05-04T08:00:00Z,26.4679,-82.0631,1.917,6.22,1111122 
SCCF RECON,ioos:station:SCCF:11:1,2012-05-04T09:00:00Z,26.4679,-82.0631,1.83,6.03,1111122 
SCCF RECON,ioos:station:SCCF:11:1,2012-05-04T10:00:00Z,26.4679,-82.0631,1.78,5.97,1111122 
SCCF RECON,ioos:station:SCCF:11:1,2012-05-04T11:00:00Z,26.4679,-82.0631,1.825,5.82,1111122 
SCCF RECON,ioos:station:SCCF:11:1,2012-05-04T12:00:00Z,26.4679,-82.0631,1.98,5.72,1111122 
SCCF RECON,ioos:station:SCCF:11:1,2012-05-04T13:00:00Z,26.4679,-82.0631,2.163,5.91,1111122 
SCCF RECON,ioos:station:SCCF:11:1,2012-05-04T14:00:00Z,26.4679,-82.0631,2.299,6.1,1111122 
SCCF RECON,ioos:station:SCCF:11:1,2012-05-04T15:00:00Z,26.4679,-82.0631,2.38,6.26,1111122 
SCCF RECON,ioos:station:SCCF:11:1,2012-05-04T16:00:00Z,26.4679,-82.0631,2.412,6.28,1111122 
SCCF RECON,ioos:station:SCCF:11:1,2012-05-04T17:00:00Z,26.4679,-82.0631,2.36,6.45,1111122 
SCCF RECON,ioos:station:SCCF:11:1,2012-05-04T18:00:00Z,26.4679,-82.0631,2.195,6.81,1111122 
SCCF RECON,ioos:station:SCCF:11:1,2012-05-04T19:00:00Z,26.4679,-82.0631,2.025,6.93,1111122 
SCCF RECON,ioos:station:SCCF:11:1,2012-05-04T20:00:00Z,26.4679,-82.0631,1.866,7.1,1111122 
SCCF RECON,ioos:station:SCCF:11:1,2012-05-04T21:00:00Z,26.4679,-82.0631,1.72,7.16,1111122 
SCCF RECON,ioos:station:SCCF:11:1,2012-05-04T22:00:00Z,26.4679,-82.0631,1.581,7.17,1111122 
SCCF RECON,ioos:station:SCCF:11:1,2012-05-04T23:00:00Z,26.4679,-82.0631,1.49,7.1,1111122 
SCCF RECON,ioos:station:SCCF:11:1,2012-05-05T00:00:00Z,26.4679,-82.0631,1.52,7.06,1111122 
SCCF RECON,ioos:station:SCCF:11:1,2012-05-05T01:00:00Z,26.4679,-82.0631,1.695,7.21,1111122 
SCCF RECON,ioos:station:SCCF:11:1,2012-05-05T02:00:00Z,26.4679,-82.0631,1.88,7.09,1111122 
SCCF RECON,ioos:station:SCCF:11:1,2012-05-05T03:00:00Z,26.4679,-82.0631,2.02,6.91,1111122 
SCCF RECON,ioos:station:SCCF:11:1,2012-05-05T04:00:00Z,26.4679,-82.0631,2.15,6.76,1111122 
SCCF RECON,ioos:station:SCCF:11:1,2012-05-05T05:00:00Z,26.4679,-82.0631,2.24,6.5,1111122 
SCCF RECON,ioos:station:SCCF:11:1,2012-05-05T06:00:00Z,26.4679,-82.0631,2.24,6.33,1111122 
SCCF RECON,ioos:station:SCCF:11:1,2012-05-05T07:00:00Z,26.4679,-82.0631,2.14,6.49,1111122 
SCCF RECON,ioos:station:SCCF:11:1,2012-05-05T08:00:00Z,26.4679,-82.0631,2.002,6.25,1111122 
SCCF RECON,ioos:station:SCCF:11:1,2012-05-05T09:00:00Z,26.4679,-82.0631,1.92,5.85,1111122 
SCCF RECON,ioos:station:SCCF:11:1,2012-05-05T10:00:00Z,26.4679,-82.0631,1.85,5.72,1111122 
SCCF RECON,ioos:station:SCCF:11:1,2012-05-05T11:00:00Z,26.4679,-82.0631,1.81,5.67,1111122 
SCCF RECON,ioos:station:SCCF:11:1,2012-05-05T12:00:00Z,26.4679,-82.0631,1.89,5.38,1111122 
SCCF RECON,ioos:station:SCCF:11:1,2012-05-05T13:00:00Z,26.4679,-82.0631,2.05,5.86,1111122 
SCCF RECON,ioos:station:SCCF:11:1,2012-05-05T14:00:00Z,26.4679,-82.0631,2.21,6.05,1111122 
SCCF RECON,ioos:station:SCCF:11:1,2012-05-05T15:00:00Z,26.4679,-82.0631,2.329,6.35,1111122 
SCCF RECON,ioos:station:SCCF:11:1,2012-05-05T16:00:00Z,26.4679,-82.0631,2.391,6.39,1111122 
SCCF RECON,ioos:station:SCCF:11:1,2012-05-05T17:00:00Z,26.4679,-82.0631,2.42,6.57,1111122 
SCCF RECON,ioos:station:SCCF:11:1,2012-05-05T18:00:00Z,26.4679,-82.0631,2.34,6.99,1111122 
SCCF RECON,ioos:station:SCCF:11:1,2012-05-05T19:00:00Z,26.4679,-82.0631,2.145,7.35,1111122 
SCCF RECON,ioos:station:SCCF:11:1,2012-05-05T20:00:00Z,26.4679,-82.0631,1.956,7.21,1111122 
SCCF RECON,ioos:station:SCCF:11:1,2012-05-05T21:00:00Z,26.4679,-82.0631,1.798,7.31,1111122 
SCCF RECON,ioos:station:SCCF:11:1,2012-05-05T22:00:00Z,26.4679,-82.0631,1.634,7.26,1111122 
SCCF RECON,ioos:station:SCCF:11:1,2012-05-05T23:00:00Z,26.4679,-82.0631,1.481,7.14,1111122 
SCCF RECON,ioos:station:SCCF:11:1,2012-05-06T00:00:00Z,26.4679,-82.0631,1.399,6.89,1111122 
SCCF RECON,ioos:station:SCCF:11:1,2012-05-06T01:00:00Z,26.4679,-82.0631,1.45,6.86,1111122 
SCCF RECON,ioos:station:SCCF:11:1,2012-05-06T02:00:00Z,26.4679,-82.0631,1.64,6.78,1111122 
SCCF RECON,ioos:station:SCCF:11:1,2012-05-06T03:00:00Z,26.4679,-82.0631,1.82,6.8,1111122 
SCCF RECON,ioos:station:SCCF:11:1,2012-05-06T04:00:00Z,26.4679,-82.0631,1.97,6.32,1111122 
SCCF RECON,ioos:station:SCCF:11:1,2012-05-06T05:00:00Z,26.4679,-82.0631,2.11,6.56,1111122 
SCCF RECON,ioos:station:SCCF:11:1,2012-05-06T06:00:00Z,26.4679,-82.0631,2.19,6.12,1111122 
SCCF RECON,ioos:station:SCCF:11:1,2012-05-06T07:00:00Z,26.4679,-82.0631,2.19,6.33,1111122 
SCCF RECON,ioos:station:SCCF:11:1,2012-05-06T08:00:00Z,26.4679,-82.0631,2.091,6.54,1111122 
SCCF RECON,ioos:station:SCCF:11:1,2012-05-06T09:00:00Z,26.4679,-82.0631,1.988,6.17,1111122 
SCCF RECON,ioos:station:SCCF:11:1,2012-05-06T10:00:00Z,26.4679,-82.0631,1.94,5.79,1111122 
SCCF RECON,ioos:station:SCCF:11:1,2012-05-06T11:00:00Z,26.4679,-82.0631,1.9,5.91,1111122 
SCCF RECON,ioos:station:SCCF:11:1,2012-05-06T12:00:00Z,26.4679,-82.0631,1.909,5.65,1111122 
SCCF RECON,ioos:station:SCCF:11:1,2012-05-06T13:00:00Z,26.4679,-82.0631,2.01,5.24,1111122 
SCCF RECON,ioos:station:SCCF:11:1,2012-05-06T14:00:00Z,26.4679,-82.0631,2.17,6.13,1111122 
SCCF RECON,ioos:station:SCCF:11:1,2012-05-06T15:00:00Z,26.4679,-82.0631,2.311,6.62,1111122 
SCCF RECON,ioos:station:SCCF:11:1,2012-05-06T16:00:00Z,26.4679,-82.0631,2.406,6.51,1111122 
SCCF RECON,ioos:station:SCCF:11:1,2012-05-06T17:00:00Z,26.4679,-82.0631,2.45,6.72,1111122 
SCCF RECON,ioos:station:SCCF:11:1,2012-05-06T18:00:00Z,26.4679,-82.0631,2.439,6.8,1111122 
SCCF RECON,ioos:station:SCCF:11:1,2012-05-06T19:00:00Z,26.4679,-82.0631,2.321,7.53,1111122 
SCCF RECON,ioos:station:SCCF:11:1,2012-05-06T20:00:00Z,26.4679,-82.0631,2.133,7.47,1111122 
SCCF RECON,ioos:station:SCCF:11:1,2012-05-06T21:00:00Z,26.4679,-82.0631,1.949,7.38,1111122 
SCCF RECON,ioos:station:SCCF:11:1,2012-05-06T22:00:00Z,26.4679,-82.0631,1.771,7.23,1111122 
SCCF RECON,ioos:station:SCCF:11:1,2012-05-06T23:00:00Z,26.4679,-82.0631,1.604,7.06,1111122 
SCCF RECON,ioos:station:SCCF:11:1,2012-05-07T00:00:00Z,26.4679,-82.0631,1.465,6.92,1111122 
SCCF RECON,ioos:station:SCCF:11:1,2012-05-07T01:00:00Z,26.4679,-82.0631,1.39,6.57,1111122 
SCCF RECON,ioos:station:SCCF:11:1,2012-05-07T02:00:00Z,26.4679,-82.0631,1.46,6.5,1111122 
SCCF RECON,ioos:station:SCCF:11:1,2012-05-07T03:00:00Z,26.4679,-82.0631,1.658,6.45,1111122 
SCCF RECON,ioos:station:SCCF:11:1,2012-05-07T04:00:00Z,26.4679,-82.0631,1.832,6.23,1111122 
SCCF RECON,ioos:station:SCCF:11:1,2012-05-07T05:00:00Z,26.4679,-82.0631,1.96,6.04,1111122 
SCCF RECON,ioos:station:SCCF:11:1,2012-05-07T06:00:00Z,26.4679,-82.0631,2.084,5.97,1111122 
SCCF RECON,ioos:station:SCCF:11:1,2012-05-07T07:00:00Z,26.4679,-82.0631,2.15,5.82,1111122 
SCCF RECON,ioos:station:SCCF:11:1,2012-05-07T08:00:00Z,26.4679,-82.0631,2.15,6.16,1111122 
SCCF RECON,ioos:station:SCCF:11:1,2012-05-07T09:00:00Z,26.4679,-82.0631,2.08,6.23,1111122 
SCCF RECON,ioos:station:SCCF:11:1,2012-05-07T10:00:00Z,26.4679,-82.0631,2.0,5.91,1111122 
SCCF RECON,ioos:station:SCCF:11:1,2012-05-07T11:00:00Z,26.4679,-82.0631,1.94,5.74,1111122 
SCCF RECON,ioos:station:SCCF:11:1,2012-05-07T12:00:00Z,26.4679,-82.0631,1.893,5.39,1111122 
SCCF RECON,ioos:station:SCCF:11:1,2012-05-07T13:00:00Z,26.4679,-82.0631,1.94,5.31,1111122 
SCCF RECON,ioos:station:SCCF:11:1,2012-05-07T14:00:00Z,26.4679,-82.0631,2.07,5.47,1111122 
SCCF RECON,ioos:station:SCCF:11:1,2012-05-07T15:00:00Z,26.4679,-82.0631,2.212,6.25,1111122 
SCCF RECON,ioos:station:SCCF:11:1,2012-05-07T16:00:00Z,26.4679,-82.0631,2.336,6.46,1111122 
SCCF RECON,ioos:station:SCCF:11:1,2012-05-07T17:00:00Z,26.4679,-82.0631,2.42,6.65,1111122 
SCCF RECON,ioos:station:SCCF:11:1,2012-05-07T18:00:00Z,26.4679,-82.0631,2.45,6.67,1111122 
SCCF RECON,ioos:station:SCCF:11:1,2012-05-07T19:00:00Z,26.4679,-82.0631,2.43,6.73,1111122 
SCCF RECON,ioos:station:SCCF:11:1,2012-05-07T20:00:00Z,26.4679,-82.0631,2.314,7.63,1111122 
SCCF RECON,ioos:station:SCCF:11:1,2012-05-07T21:00:00Z,26.4679,-82.0631,2.12,7.4,1111122 
SCCF RECON,ioos:station:SCCF:11:1,2012-05-07T22:00:00Z,26.4679,-82.0631,1.934,7.16,1111122 
SCCF RECON,ioos:station:SCCF:11:1,2012-05-07T23:00:00Z,26.4679,-82.0631,1.763,7.04,1111122 
SCCF RECON,ioos:station:SCCF:11:1,2012-05-08T00:00:00Z,26.4679,-82.0631,1.61,6.86,1111122 
SCCF RECON,ioos:station:SCCF:11:1,2012-05-08T01:00:00Z,26.4679,-82.0631,1.481,6.58,1111122 
SCCF RECON,ioos:station:SCCF:11:1,2012-05-08T02:00:00Z,26.4679,-82.0631,1.425,6.35,1111122 
SCCF RECON,ioos:station:SCCF:11:1,2012-05-08T03:00:00Z,26.4679,-82.0631,1.527,6.07,1111122 
SCCF RECON,ioos:station:SCCF:11:1,2012-05-08T04:00:00Z,26.4679,-82.0631,1.73,6.12,1111122 
SCCF RECON,ioos:station:SCCF:11:1,2012-05-08T05:00:00Z,26.4679,-82.0631,1.88,5.89,1111122 
SCCF RECON,ioos:station:SCCF:11:1,2012-05-08T06:00:00Z,26.4679,-82.0631,1.99,5.83,1111122 
SCCF RECON,ioos:station:SCCF:11:1,2012-05-08T07:00:00Z,26.4679,-82.0631,2.095,5.91,1111122 
SCCF RECON,ioos:station:SCCF:11:1,2012-05-08T08:00:00Z,26.4679,-82.0631,2.17,5.85,1111122 
SCCF RECON,ioos:station:SCCF:11:1,2012-05-08T09:00:00Z,26.4679,-82.0631,2.16,5.68,1111122 
SCCF RECON,ioos:station:SCCF:11:1,2012-05-08T10:00:00Z,26.4679,-82.0631,2.085,5.9,1111122 
SCCF RECON,ioos:station:SCCF:11:1,2012-05-08T11:00:00Z,26.4679,-82.0631,2.01,5.68,1111122 
SCCF RECON,ioos:station:SCCF:11:1,2012-05-08T12:00:00Z,26.4679,-82.0631,1.97,5.31,1111122 
SCCF RECON,ioos:station:SCCF:11:1,2012-05-08T13:00:00Z,26.4679,-82.0631,1.96,5.31,1111122 
SCCF RECON,ioos:station:SCCF:11:1,2012-05-08T14:00:00Z,26.4679,-82.0631,2.01,5.29,1111122 
SCCF RECON,ioos:station:SCCF:11:1,2012-05-08T15:00:00Z,26.4679,-82.0631,2.13,5.07,1111122 
SCCF RECON,ioos:station:SCCF:11:1,2012-05-08T16:00:00Z,26.4679,-82.0631,2.25,6.14,1111122 
SCCF RECON,ioos:station:SCCF:11:1,2012-05-08T17:00:00Z,26.4679,-82.0631,2.35,6.39,1111122 
SCCF RECON,ioos:station:SCCF:11:1,2012-05-08T18:00:00Z,26.4679,-82.0631,2.41,6.46,1111122 
SCCF RECON,ioos:station:SCCF:11:1,2012-05-08T19:00:00Z,26.4679,-82.0631,2.43,7.2,1111122 
SCCF RECON,ioos:station:SCCF:11:1,2012-05-08T20:00:00Z,26.4679,-82.0631,2.366,7.63,1111122 
SCCF RECON,ioos:station:SCCF:11:1,2012-05-08T21:00:00Z,26.4679,-82.0631,2.211,7.57,1111122 
SCCF RECON,ioos:station:SCCF:11:1,2012-05-08T22:00:00Z,26.4679,-82.0631,2.039,7.29,1111122 
SCCF RECON,ioos:station:SCCF:11:1,2012-05-08T23:00:00Z,26.4679,-82.0631,1.861,7.09,1111122 
SCCF RECON,ioos:station:SCCF:11:1,2012-05-09T00:00:00Z,26.4679,-82.0631,1.701,6.81,1111122 
SCCF RECON,ioos:station:SCCF:11:1,2012-05-09T01:00:00Z,26.4679,-82.0631,1.56,6.5,1111122 
SCCF RECON,ioos:station:SCCF:11:1,2012-05-09T02:00:00Z,26.4679,-82.0631,1.442,6.21,1111122 
SCCF RECON,ioos:station:SCCF:11:1,2012-05-09T03:00:00Z,26.4679,-82.0631,1.41,6.08,1111122 
SCCF RECON,ioos:station:SCCF:11:1,2012-05-09T04:00:00Z,26.4679,-82.0631,1.511,6.37,1111122 
SCCF RECON,ioos:station:SCCF:11:1,2012-05-09T05:00:00Z,26.4679,-82.0631,1.684,5.8,1111122 
SCCF RECON,ioos:station:SCCF:11:1,2012-05-09T06:00:00Z,26.4679,-82.0631,1.822,5.85,1111122 
SCCF RECON,ioos:station:SCCF:11:1,2012-05-09T07:00:00Z,26.4679,-82.0631,1.935,5.77,1111122 
SCCF RECON,ioos:station:SCCF:11:1,2012-05-09T08:00:00Z,26.4679,-82.0631,2.03,5.87,1111122 
SCCF RECON,ioos:station:SCCF:11:1,2012-05-09T09:00:00Z,26.4679,-82.0631,2.11,5.9,1111122 
SCCF RECON,ioos:station:SCCF:11:1,2012-05-09T10:00:00Z,26.4679,-82.0631,2.1,5.86,1111122 
SCCF RECON,ioos:station:SCCF:11:1,2012-05-09T11:00:00Z,26.4679,-82.0631,2.031,5.82,1111122 
SCCF RECON,ioos:station:SCCF:11:1,2012-05-09T12:00:00Z,26.4679,-82.0631,1.96,5.61,1111122 
SCCF RECON,ioos:station:SCCF:11:1,2012-05-09T13:00:00Z,26.4679,-82.0631,1.94,5.45,1111122 
SCCF RECON,ioos:station:SCCF:11:1,2012-05-09T14:00:00Z,26.4679,-82.0631,1.97,5.55,1111122 
SCCF RECON,ioos:station:SCCF:11:1,2012-05-09T15:00:00Z,26.4679,-82.0631,2.009,5.8,1111122 
SCCF RECON,ioos:station:SCCF:11:1,2012-05-09T16:00:00Z,26.4679,-82.0631,2.11,6.01,1111122 
SCCF RECON,ioos:station:SCCF:11:1,2012-05-09T17:00:00Z,26.4679,-82.0631,2.23,6.52,1111122 
SCCF RECON,ioos:station:SCCF:11:1,2012-05-09T18:00:00Z,26.4679,-82.0631,2.32,6.64,1111122 
SCCF RECON,ioos:station:SCCF:11:1,2012-05-09T19:00:00Z,26.4679,-82.0631,2.356,6.88,1111122 
SCCF RECON,ioos:station:SCCF:11:1,2012-05-09T20:00:00Z,26.4679,-82.0631,2.35,7.18,1111122 
SCCF RECON,ioos:station:SCCF:11:1,2012-05-09T21:00:00Z,26.4679,-82.0631,2.27,7.66,1111122 
SCCF RECON,ioos:station:SCCF:11:1,2012-05-09T22:00:00Z,26.4679,-82.0631,2.14,7.55,1111122 
SCCF RECON,ioos:station:SCCF:11:1,2012-05-09T23:00:00Z,26.4679,-82.0631,1.991,7.1,1111122 
SCCF RECON,ioos:station:SCCF:11:1,2012-05-10T00:00:00Z,26.4679,-82.0631,1.869,6.76,1111122 
SCCF RECON,ioos:station:SCCF:11:1,2012-05-10T01:00:00Z,26.4679,-82.0631,1.725,6.58,1111122 
SCCF RECON,ioos:station:SCCF:11:1,2012-05-10T02:00:00Z,26.4679,-82.0631,1.599,6.22,1111122 
SCCF RECON,ioos:station:SCCF:11:1,2012-05-10T03:00:00Z,26.4679,-82.0631,1.491,5.98,1111122 
SCCF RECON,ioos:station:SCCF:11:1,2012-05-10T04:00:00Z,26.4679,-82.0631,1.45,5.85,1111122 
SCCF RECON,ioos:station:SCCF:11:1,2012-05-10T05:00:00Z,26.4679,-82.0631,1.56,5.34,1111122 
SCCF RECON,ioos:station:SCCF:11:1,2012-05-10T06:00:00Z,26.4679,-82.0631,1.72,5.54,1111122 
SCCF RECON,ioos:station:SCCF:11:1,2012-05-10T07:00:00Z,26.4679,-82.0631,1.84,5.77,1111122 
SCCF RECON,ioos:station:SCCF:11:1,2012-05-10T08:00:00Z,26.4679,-82.0631,1.93,5.47,1111122 
SCCF RECON,ioos:station:SCCF:11:1,2012-05-10T09:00:00Z,26.4679,-82.0631,2.011,5.64,1111122 
SCCF RECON,ioos:station:SCCF:11:1,2012-05-10T10:00:00Z,26.4679,-82.0631,2.057,5.7,1111122 
SCCF RECON,ioos:station:SCCF:11:1,2012-05-10T11:00:00Z,26.4679,-82.0631,2.061,5.4,1111122 
SCCF RECON,ioos:station:SCCF:11:1,2012-05-10T12:00:00Z,26.4679,-82.0631,2.022,5.55,1111122 
SCCF RECON,ioos:station:SCCF:11:1,2012-05-10T13:00:00Z,26.4679,-82.0631,1.97,5.41,1111122 
SCCF RECON,ioos:station:SCCF:11:1,2012-05-10T14:00:00Z,26.4679,-82.0631,1.929,5.26,1111122 
SCCF RECON,ioos:station:SCCF:11:1,2012-05-10T15:00:00Z,26.4679,-82.0631,1.906,5.56,1111122 
SCCF RECON,ioos:station:SCCF:11:1,2012-05-10T16:00:00Z,26.4679,-82.0631,1.93,6.15,1111122 
SCCF RECON,ioos:station:SCCF:11:1,2012-05-10T17:00:00Z,26.4679,-82.0631,2.031,6.63,1111122 
SCCF RECON,ioos:station:SCCF:11:1,2012-05-10T18:00:00Z,26.4679,-82.0631,2.152,6.57,1111122 
SCCF RECON,ioos:station:SCCF:11:1,2012-05-10T19:00:00Z,26.4679,-82.0631,2.256,6.21,1111122 
SCCF RECON,ioos:station:SCCF:11:1,2012-05-10T20:00:00Z,26.4679,-82.0631,2.279,7.1,1111122 
SCCF RECON,ioos:station:SCCF:11:1,2012-05-10T21:00:00Z,26.4679,-82.0631,2.241,7.23,1111122 
SCCF RECON,ioos:station:SCCF:11:1,2012-05-10T22:00:00Z,26.4679,-82.0631,2.171,7.31,1111122 
SCCF RECON,ioos:station:SCCF:11:1,2012-05-10T23:00:00Z,26.4679,-82.0631,2.082,7.47,1111122 
SCCF RECON,ioos:station:SCCF:11:1,2012-05-11T00:00:00Z,26.4679,-82.0631,1.979,7.11,1111122 
SCCF RECON,ioos:station:SCCF:11:1,2012-05-11T01:00:00Z,26.4679,-82.0631,1.862,6.74,1111122 
SCCF RECON,ioos:station:SCCF:11:1,2012-05-11T02:00:00Z,26.4679,-82.0631,1.748,6.5,1111122 
SCCF RECON,ioos:station:SCCF:11:1,2012-05-11T03:00:00Z,26.4679,-82.0631,1.643,6.15,1111122 
SCCF RECON,ioos:station:SCCF:11:1,2012-05-11T04:00:00Z,26.4679,-82.0631,1.56,5.91,1111122 
SCCF RECON,ioos:station:SCCF:11:1,2012-05-11T05:00:00Z,26.4679,-82.0631,1.54,5.71,1111122 
SCCF RECON,ioos:station:SCCF:11:1,2012-05-11T06:00:00Z,26.4679,-82.0631,1.63,5.32,1111122 
SCCF RECON,ioos:station:SCCF:11:1,2012-05-11T07:00:00Z,26.4679,-82.0631,1.768,5.42,1111122 
SCCF RECON,ioos:station:SCCF:11:1,2012-05-11T08:00:00Z,26.4679,-82.0631,1.875,5.68,1111122 
SCCF RECON,ioos:station:SCCF:11:1,2012-05-11T09:00:00Z,26.4679,-82.0631,1.968,5.64,1111122 
SCCF RECON,ioos:station:SCCF:11:1,2012-05-11T10:00:00Z,26.4679,-82.0631,2.03,5.53,1111122 
SCCF RECON,ioos:station:SCCF:11:1,2012-05-11T11:00:00Z,26.4679,-82.0631,2.078,5.54,1111122 
SCCF RECON,ioos:station:SCCF:11:1,2012-05-11T12:00:00Z,26.4679,-82.0631,2.06,5.5,1111122 
SCCF RECON,ioos:station:SCCF:11:1,2012-05-11T13:00:00Z,26.4679,-82.0631,2.014,5.67,1111122 
SCCF RECON,ioos:station:SCCF:11:1,2012-05-11T14:00:00Z,26.4679,-82.0631,1.977,5.52,1111122 
SCCF RECON,ioos:station:SCCF:11:1,2012-05-11T15:00:00Z,26.4679,-82.0631,1.96,5.54,1111122 
SCCF RECON,ioos:station:SCCF:11:1,2012-05-11T16:00:00Z,26.4679,-82.0631,1.947,5.74,1111122 
SCCF RECON,ioos:station:SCCF:11:1,2012-05-11T17:00:00Z,26.4679,-82.0631,1.97,6.3,1111122 
SCCF RECON,ioos:station:SCCF:11:1,2012-05-11T18:00:00Z,26.4679,-82.0631,2.032,6.34,1111122 
SCCF RECON,ioos:station:SCCF:11:1,2012-05-11T19:00:00Z,26.4679,-82.0631,2.12,6.84,1111122 
SCCF RECON,ioos:station:SCCF:11:1,2012-05-11T20:00:00Z,26.4679,-82.0631,2.21,7.25,1111122 
SCCF RECON,ioos:station:SCCF:11:1,2012-05-11T21:00:00Z,26.4679,-82.0631,2.262,7.18,1111122 